AAL48K EDDF-KLAX

Flight info

Callsign AAL48K
Flight time N/A
Altitude 32000
Route OBOKA5G/25C OBOKA Z28 DIBIR DCT BUDIP DCT AMGOD DCT TOPPA DCT GIGUL DCT UPNAL DCT ATSIX/M084F340 DCT 62N020W 63N030W 63N040W 62N050W DCT PIDSO N950B MUSLO/N0489F340 N950B RODBO DCT TUNNI DCT LENUT/N0481F360 DCT GOSEP DCT YER DCT EPVUM DCT DUVIS DCT KERBI DCT 49N099W DCT OGSIQ DCT MLDRD DCT RECAP DCT CZI/N0490F380 DCT OCS J107 MLF DCT HAKMN ANJLL4
Aircraft B77W/H-SDE1E2E3FGHIJ2J3J4J5M1RWXY/LB1D1

Departure

Time 2026-04-17 21:06
Airport Frankfurt Main Airport (EDDF)

Arrival

Time N/A
Airport Los Angeles International Airport (KLAX)
Time Latitude Longitude Altitude Speed Heading
2026-04-17 20:25 50.04799 8.56590 361 ft 0 kts 340°
2026-04-17 20:43 50.04794 8.56593 361 ft 2 kts 339°
2026-04-17 20:44 50.04778 8.56602 368 ft 2 kts 339°
2026-04-17 20:44 50.04763 8.56611 367 ft 2 kts 340°
2026-04-17 20:44 50.04747 8.56619 366 ft 2 kts 340°
2026-04-17 20:44 50.04732 8.56628 366 ft 2 kts 340°
2026-04-17 20:45 50.04717 8.56637 367 ft 2 kts 340°
2026-04-17 20:45 50.04710 8.56641 365 ft 0 kts 340°
2026-04-17 20:49 50.04712 8.56638 366 ft 2 kts 332°
2026-04-17 20:50 50.04717 8.56598 368 ft 5 kts 259°
2026-04-17 20:50 50.04700 8.56552 368 ft 5 kts 238°
2026-04-17 20:50 50.04689 8.56518 367 ft 0 kts 244°
2026-04-17 20:52 50.04683 8.56496 366 ft 8 kts 246°
2026-04-17 20:52 50.04660 8.56406 367 ft 9 kts 249°
2026-04-17 20:52 50.04638 8.56314 367 ft 9 kts 249°
2026-04-17 20:52 50.04616 8.56223 365 ft 9 kts 249°
2026-04-17 20:53 50.04594 8.56131 367 ft 9 kts 250°
2026-04-17 20:53 50.04572 8.56039 365 ft 9 kts 250°
2026-04-17 20:53 50.04532 8.55966 366 ft 9 kts 211°
2026-04-17 20:53 50.04473 8.55932 361 ft 9 kts 198°
2026-04-17 20:54 50.04412 8.55912 366 ft 9 kts 182°
2026-04-17 20:54 50.04350 8.55929 367 ft 9 kts 161°
2026-04-17 20:54 50.04289 8.55960 363 ft 9 kts 154°
2026-04-17 20:54 50.04270 8.56049 365 ft 9 kts 80°
2026-04-17 20:55 50.04288 8.56145 365 ft 9 kts 71°
2026-04-17 20:55 50.04276 8.56233 366 ft 10 kts 154°
2026-04-17 20:55 50.04213 8.56258 360 ft 4 kts 161°
2026-04-17 20:55 50.04205 8.56262 363 ft 0 kts 161°
2026-04-17 20:56 50.04202 8.56264 362 ft 3 kts 161°
2026-04-17 20:56 50.04161 8.56291 365 ft 9 kts 144°
2026-04-17 20:57 50.04152 8.56377 362 ft 9 kts 76°
2026-04-17 20:57 50.04172 8.56465 368 ft 9 kts 70°
2026-04-17 20:57 50.04192 8.56553 366 ft 9 kts 70°
2026-04-17 20:57 50.04213 8.56641 367 ft 9 kts 70°
2026-04-17 20:58 50.04230 8.56712 365 ft 0 kts 69°
2026-04-17 20:58 50.04232 8.56721 364 ft 4 kts 69°
2026-04-17 20:58 50.04246 8.56776 370 ft 10 kts 69°
2026-04-17 20:58 50.04278 8.56909 365 ft 13 kts 69°
2026-04-17 20:59 50.04310 8.57045 369 ft 13 kts 69°
2026-04-17 20:59 50.04343 8.57181 369 ft 13 kts 69°
2026-04-17 20:59 50.04375 8.57317 368 ft 13 kts 69°
2026-04-17 20:59 50.04407 8.57453 370 ft 13 kts 70°
2026-04-17 21:00 50.04433 8.57562 367 ft 0 kts 70°
2026-04-17 21:00 50.04437 8.57578 372 ft 6 kts 69°
2026-04-17 21:00 50.04457 8.57661 373 ft 15 kts 69°
2026-04-17 21:00 50.04496 8.57825 370 ft 16 kts 70°
2026-04-17 21:01 50.04520 8.57924 371 ft 0 kts 70°
2026-04-17 21:01 50.04538 8.57999 372 ft 16 kts 70°
2026-04-17 21:02 50.04577 8.58165 372 ft 16 kts 69°
2026-04-17 21:02 50.04617 8.58331 375 ft 16 kts 70°
2026-04-17 21:02 50.04653 8.58488 377 ft 13 kts 78°
2026-04-17 21:02 50.04599 8.58585 378 ft 13 kts 153°
2026-04-17 21:03 50.04519 8.58632 379 ft 8 kts 168°
2026-04-17 21:03 50.04490 8.58595 380 ft 6 kts 243°
2026-04-17 21:03 50.04488 8.58586 380 ft 0 kts 246°
2026-04-17 21:05 50.04472 8.58521 377 ft 20 kts 250°
2026-04-17 21:05 50.04347 8.58002 371 ft 89 kts 250°
2026-04-17 21:05 50.04045 8.56738 363 ft 159 kts 249°
2026-04-17 21:05 50.03596 8.54842 371 ft 208 kts 249°
2026-04-17 21:06 50.03093 8.52766 1006 ft 202 kts 250°
2026-04-17 21:06 50.02635 8.50690 1605 ft 205 kts 260°
2026-04-17 21:06 50.02637 8.48365 1739 ft 225 kts 278°
2026-04-17 21:06 50.02904 8.45899 2087 ft 240 kts 279°
2026-04-17 21:07 50.03137 8.43234 2407 ft 253 kts 270°
2026-04-17 21:07 50.02876 8.40497 2947 ft 255 kts 256°
2026-04-17 21:07 50.02426 8.37841 3665 ft 256 kts 255°
2026-04-17 21:07 50.01977 8.35145 4316 ft 259 kts 256°
2026-04-17 21:08 50.01583 8.32373 4926 ft 265 kts 258°
2026-04-17 21:08 50.01217 8.29529 5518 ft 272 kts 258°
2026-04-17 21:08 50.00872 8.26620 6164 ft 273 kts 263°
2026-04-17 21:08 50.01102 8.23740 6832 ft 275 kts 293°
2026-04-17 21:09 50.02202 8.21312 7419 ft 274 kts 314°
2026-04-17 21:09 50.03463 8.19166 8017 ft 274 kts 305°
2026-04-17 21:09 50.04538 8.16655 8459 ft 282 kts 297°
2026-04-17 21:09 50.05407 8.13912 9083 ft 283 kts 293°
2026-04-17 21:10 50.06235 8.11130 9711 ft 284 kts 300°
2026-04-17 21:10 50.07381 8.08605 10201 ft 288 kts 307°
2026-04-17 21:10 50.08694 8.06160 10524 ft 300 kts 309°
2026-04-17 21:10 50.10080 8.03618 10668 ft 319 kts 308°
2026-04-17 21:11 50.11545 8.00891 10822 ft 338 kts 308°
2026-04-17 21:11 50.13082 7.97984 10974 ft 357 kts 308°
2026-04-17 21:11 50.14672 7.94934 11389 ft 368 kts 307°
2026-04-17 21:11 50.16296 7.91792 11999 ft 374 kts 307°
2026-04-17 21:12 50.17929 7.88611 12794 ft 377 kts 307°
2026-04-17 21:12 50.19566 7.85411 13666 ft 378 kts 307°
2026-04-17 21:12 50.21210 7.82195 14416 ft 381 kts 307°
2026-04-17 21:12 50.22875 7.78934 15034 ft 387 kts 307°
2026-04-17 21:13 50.24567 7.75642 15682 ft 388 kts 309°
2026-04-17 21:13 50.26625 7.72853 16188 ft 399 kts 329°
2026-04-17 21:13 50.29188 7.71174 16710 ft 402 kts 337°
2026-04-17 21:13 50.31807 7.69520 17275 ft 408 kts 334°
2026-04-17 21:14 50.34410 7.67735 17997 ft 410 kts 334°
2026-04-17 21:14 50.37022 7.65919 18697 ft 412 kts 334°
2026-04-17 21:14 50.39617 7.64122 19290 ft 415 kts 334°
2026-04-17 21:14 50.42270 7.62294 19891 ft 418 kts 334°
2026-04-17 21:15 50.44945 7.60455 20459 ft 421 kts 334°
2026-04-17 21:15 50.47641 7.58600 21036 ft 425 kts 334°
2026-04-17 21:15 50.50355 7.56728 21578 ft 428 kts 334°
2026-04-17 21:15 50.53089 7.54841 22133 ft 431 kts 334°
2026-04-17 21:16 50.55844 7.52923 22669 ft 434 kts 332°
2026-04-17 21:16 50.58490 7.50642 23167 ft 435 kts 325°
2026-04-17 21:16 50.61020 7.47993 23689 ft 438 kts 323°
2026-04-17 21:16 50.63543 7.45229 24134 ft 441 kts 323°
2026-04-17 21:17 50.66074 7.42497 24560 ft 445 kts 323°
2026-04-17 21:17 50.68660 7.39791 25019 ft 447 kts 324°
2026-04-17 21:17 50.71275 7.37103 25469 ft 449 kts 324°
2026-04-17 21:17 50.73880 7.34364 25886 ft 450 kts 320°
2026-04-17 21:18 50.76088 7.30909 26199 ft 446 kts 303°
2026-04-17 21:18 50.77813 7.26829 26508 ft 449 kts 301°
2026-04-17 21:18 50.79541 7.22696 26895 ft 452 kts 302°
2026-04-17 21:18 50.81310 7.18579 27324 ft 454 kts 302°
2026-04-17 21:19 50.83112 7.14475 27753 ft 455 kts 303°
2026-04-17 21:19 50.84940 7.10357 28139 ft 458 kts 303°
2026-04-17 21:19 50.86777 7.06229 28498 ft 460 kts 303°
2026-04-17 21:19 50.88622 7.02068 28779 ft 464 kts 302°
2026-04-17 21:20 50.90480 6.97870 29049 ft 467 kts 302°
2026-04-17 21:20 50.92352 6.93645 29371 ft 469 kts 302°
2026-04-17 21:20 50.94230 6.89409 29705 ft 470 kts 302°
2026-04-17 21:20 50.96113 6.85158 30014 ft 472 kts 302°
2026-04-17 21:21 50.97997 6.80896 30358 ft 472 kts 302°
2026-04-17 21:21 50.99877 6.76635 30698 ft 471 kts 302°
2026-04-17 21:21 51.01752 6.72379 31043 ft 470 kts 302°
2026-04-17 21:21 51.03619 6.68130 31362 ft 469 kts 302°
2026-04-17 21:22 51.05485 6.63878 31668 ft 469 kts 302°
2026-04-17 21:22 51.07351 6.59617 31837 ft 472 kts 301°
2026-04-17 21:22 51.11093 6.51033 32115 ft 477 kts 301°
2026-04-17 21:23 51.14871 6.42291 32219 ft 480 kts 301°
2026-04-17 21:23 51.18681 6.33443 32224 ft 487 kts 301°
2026-04-17 21:24 51.22528 6.24488 32223 ft 491 kts 301°
2026-04-17 21:24 51.26392 6.15470 32217 ft 493 kts 301°
2026-04-17 21:25 51.30205 6.06369 32196 ft 493 kts 299°
2026-04-17 21:25 51.33925 5.97177 32199 ft 492 kts 299°
2026-04-17 21:26 51.37943 5.88315 32198 ft 494 kts 307°
2026-04-17 21:26 51.42881 5.80601 32196 ft 499 kts 316°